{"data":{"norad_id":59102,"epoch":"2026-05-25T03:00:34.050240Z","epoch_age_seconds":67378,"freshness":"FRESH","line1":"1 59102U 24043E   26145.12539410  .00003964  00000+0  27645-3 0  9991","line2":"2 59102  97.8280 281.7716 0016543  89.0555 271.2567 15.05884388121617","mean_motion":15.05884388,"eccentricity":0.0016543,"inclination_deg":97.828,"raan_deg":281.7716,"arg_perigee_deg":89.0555,"mean_anomaly_deg":271.2567,"bstar":0.00027645,"rev_number":12161,"period_min":95.624870771952,"perigee_km":537.33306622575,"apogee_km":560.25150445923,"semimajor_km":6926.9292853425,"source":"CELESTRAK","updated_at":"2026-05-25T13:38:01.189785Z"}}